| time (UTC) | temp C | wind direction | speed KPH | gust KPH | rain 1hr cm | rain 24hr cm | rain mn cm | humidity % | barometer mb |
| 20260507201427 | 16 | 249 | 3.2 | 3.2 | 0.00 | 0.00 | 0.00 | 36 | 1034.5 |
| 20260507200924 | 16 | 271 | 4.8 | 8.0 | 0.00 | 0.00 | 0.00 | 36 | 1034.2 |
| 20260507200420 | 16 | 158 | 1.6 | 4.8 | 0.00 | 0.00 | 0.00 | 38 | 1034.1 |
| 20260507195916 | 16 | 158 | 1.6 | 3.2 | 0.00 | 0.00 | 0.00 | 36 | 1034.0 |
| 20260507195414 | 16 | 286 | 4.8 | 4.8 | 0.00 | 0.00 | 0.00 | 36 | 1034.1 |
| 20260507194911 | 17 | 188 | 0.0 | 0.0 | 0.00 | 0.00 | 0.00 | 35 | 1034.1 |
| 20260507194407 | 15 | 200 | 3.2 | 4.8 | 0.00 | 0.00 | 0.00 | 39 | 1034.4 |
| 20260507193903 | 15 | 204 | 3.2 | 8.0 | 0.00 | 0.00 | 0.00 | 37 | 1034.1 |
| 20260507193400 | 15 | 260 | 0.0 | 1.6 | 0.00 | 0.00 | 0.00 | 39 | 1034.3 |
| 20260507192857 | 16 | 312 | 3.2 | 3.2 | 0.00 | 0.00 | 0.00 | 39 | 1034.4 |
| 20260507192353 | 16 | 215 | 1.6 | 1.6 | 0.00 | 0.00 | 0.00 | 39 | 1034.3 |
| 20260507191850 | 14 | 174 | 1.6 | 1.6 | 0.00 | 0.00 | 0.00 | 40 | 1034.5 |
| 20260507191346 | 15 | 194 | 0.0 | 0.0 | 0.00 | 0.00 | 0.00 | 42 | 1034.4 |
| 20260507190843 | 16 | 306 | 1.6 | 3.2 | 0.00 | 0.00 | 0.00 | 39 | 1034.3 |
| 20260507190341 | 15 | 278 | 4.8 | 4.8 | 0.00 | 0.00 | 0.00 | 39 | 1034.7 |
| 20260507185839 | 15 | 206 | 0.0 | 0.0 | 0.00 | 0.00 | 0.00 | 41 | 1034.6 |
| 20260507185336 | 15 | 180 | 3.2 | 3.2 | 0.00 | 0.00 | 0.00 | 41 | 1034.7 |
| 20260507184833 | 16 | 320 | 3.2 | 4.8 | 0.00 | 0.00 | 0.00 | 40 | 1034.9 |
| 20260507184331 | 15 | 206 | 1.6 | 1.6 | 0.00 | 0.00 | 0.00 | 42 | 1034.8 |
| 20260507183827 | 15 | 227 | 0.0 | 0.0 | 0.00 | 0.00 | 0.00 | 44 | 1034.9 |
| 20260507183325 | 16 | 233 | 1.6 | 3.2 | 0.00 | 0.00 | 0.00 | 39 | 1034.9 |
| 20260507182822 | 16 | 148 | 0.0 | 0.0 | 0.00 | 0.00 | 0.00 | 38 | 1034.9 |
| 20260507182318 | 16 | 200 | 0.0 | 0.0 | 0.00 | 0.00 | 0.00 | 41 | 1034.8 |
| 20260507181814 | 16 | 255 | 1.6 | 1.6 | 0.00 | 0.00 | 0.00 | 39 | 1034.9 |
| 20260507181310 | 16 | 217 | 4.8 | 8.0 | 0.00 | 0.00 | 0.00 | 40 | 1034.8 |
| 20260507180807 | 16 | 162 | 4.8 | 8.0 | 0.00 | 0.00 | 0.00 | 43 | 1035.1 |
| 20260507180304 | 16 | 246 | 1.6 | 1.6 | 0.00 | 0.00 | 0.00 | 39 | 1035.0 |
| 20260507175759 | 15 | 199 | 0.0 | 1.6 | 0.00 | 0.00 | 0.00 | 43 | 1034.8 |
| 20260507175257 | 13 | 203 | 1.6 | 1.6 | 0.00 | 0.00 | 0.00 | 41 | 1035.0 |
| 20260507174754 | 15 | 218 | 9.7 | 14.5 | 0.00 | 0.00 | 0.00 | 37 | 1034.9 |
| 20260507174252 | 16 | 176 | 3.2 | 3.2 | 0.00 | 0.00 | 0.00 | 39 | 1034.7 |
| 20260507173749 | 15 | 191 | 6.4 | 9.7 | 0.00 | 0.00 | 0.00 | 42 | 1035.0 |
| 20260507173246 | 15 | 207 | 0.0 | 1.6 | 0.00 | 0.00 | 0.00 | 39 | 1035.0 |
| 20260507172742 | 16 | 244 | 4.8 | 4.8 | 0.00 | 0.00 | 0.00 | 41 | 1035.0 |
| 20260507172240 | 16 | 322 | 4.8 | 8.0 | 0.00 | 0.00 | 0.00 | 38 | 1035.1 |
| 20260507171735 | 16 | 275 | 4.8 | 8.0 | 0.00 | 0.00 | 0.00 | 38 | 1034.8 |
| 20260507171232 | 16 | 189 | 3.2 | 3.2 | 0.00 | 0.00 | 0.00 | 42 | 1035.0 |
| 20260507170729 | 15 | 250 | 11.3 | 14.5 | 0.00 | 0.00 | 0.00 | 40 | 1035.0 |
| 20260507170226 | 15 | 214 | 6.4 | 12.9 | 0.00 | 0.00 | 0.00 | 44 | 1034.9 |
| 20260507165721 | 16 | 248 | 8.0 | 14.5 | 0.00 | 0.00 | 0.00 | 43 | 1035.1 |
| 20260507165218 | 15 | 187 | 0.0 | 1.6 | 0.00 | 0.00 | 0.00 | 45 | 1035.2 |
| 20260507164714 | 16 | 184 | 1.6 | 1.6 | 0.00 | 0.00 | 0.00 | 45 | 1035.3 |
| 20260507164211 | 16 | 235 | 0.0 | 1.6 | 0.00 | 0.00 | 0.00 | 48 | 1035.2 |
| 20260507163708 | 16 | 259 | 9.7 | 12.9 | 0.00 | 0.00 | 0.00 | 46 | 1035.0 |
| 20260507163206 | 16 | 242 | 0.0 | 0.0 | 0.00 | 0.00 | 0.00 | 44 | 1035.3 |
| 20260507162702 | 15 | 185 | 0.0 | 1.6 | 0.00 | 0.00 | 0.00 | 48 | 1035.6 |
| 20260507162158 | 15 | 194 | 0.0 | 0.0 | 0.00 | 0.00 | 0.00 | 43 | 1035.6 |
| 20260507161655 | 16 | 273 | 6.4 | 8.0 | 0.00 | 0.00 | 0.00 | 42 | 1035.7 |
| 20260507161151 | 15 | 225 | 0.0 | 1.6 | 0.00 | 0.00 | 0.00 | 48 | 1035.5 |
| 20260507160647 | 15 | 196 | 0.0 | 0.0 | 0.00 | 0.00 | 0.00 | 48 | 1035.4 |
| 20260507160144 | 15 | 265 | 1.6 | 3.2 | 0.00 | 0.00 | 0.00 | 48 | 1035.5 |
| 20260507155639 | 14 | 219 | 0.0 | 0.0 | 0.00 | 0.00 | 0.00 | 54 | 1035.5 |
| 20260507155136 | 15 | 278 | 0.0 | 0.0 | 0.00 | 0.00 | 0.00 | 56 | 1035.7 |
| 20260507154633 | 15 | 249 | 1.6 | 1.6 | 0.00 | 0.00 | 0.00 | 54 | 1035.7 |
| 20260507154131 | 15 | 195 | 0.0 | 0.0 | 0.00 | 0.00 | 0.00 | 58 | 1035.5 |
| 20260507153626 | 13 | 194 | 0.0 | 0.0 | 0.00 | 0.00 | 0.00 | 60 | 1036.0 |
| 20260507153124 | 15 | 235 | 6.4 | 8.0 | 0.00 | 0.00 | 0.00 | 61 | 1035.7 |
| 20260507152620 | 13 | 226 | 0.0 | 0.0 | 0.00 | 0.00 | 0.00 | 62 | 1036.1 |
| 20260507152116 | 13 | 210 | 1.6 | 3.2 | 0.00 | 0.00 | 0.00 | 67 | 1036.2 |
| 20260507151612 | 13 | 228 | 3.2 | 4.8 | 0.00 | 0.00 | 0.00 | 67 | 1036.1 |
| 20260507151109 | 12 | 203 | 1.6 | 3.2 | 0.00 | 0.00 | 0.00 | 70 | 1036.0 |
| 20260507150606 | 13 | 221 | 1.6 | 3.2 | 0.00 | 0.00 | 0.00 | 67 | 1036.1 |
| 20260507145558 | 13 | 214 | 0.0 | 1.6 | 0.00 | 0.00 | 0.00 | 64 | 1036.3 |
| 20260507145056 | 13 | 206 | 0.0 | 0.0 | 0.00 | 0.00 | 0.00 | 67 | 1036.3 |
| 20260507144552 | 12 | 215 | 1.6 | 3.2 | 0.00 | 0.00 | 0.00 | 63 | 1036.2 |
| 20260507144050 | 12 | 208 | 0.0 | 0.0 | 0.00 | 0.00 | 0.00 | 70 | 1036.3 |
| 20260507143546 | 12 | 225 | 0.0 | 0.0 | 0.00 | 0.00 | 0.00 | 68 | 1036.2 |
| 20260507143044 | 12 | 221 | 1.6 | 3.2 | 0.00 | 0.00 | 0.00 | 69 | 1036.2 |
| 20260507142539 | 12 | 242 | 3.2 | 3.2 | 0.00 | 0.00 | 0.00 | 69 | 1036.2 |
| 20260507142036 | 12 | 205 | 0.0 | 0.0 | 0.00 | 0.00 | 0.00 | 67 | 1036.2 |
| 20260507141532 | 12 | 194 | 0.0 | 0.0 | 0.00 | 0.00 | 0.00 | 73 | 1036.2 |
| 20260507141029 | 12 | 210 | 1.6 | 1.6 | 0.00 | 0.00 | 0.00 | 72 | 1036.1 |
| 20260507140526 | 13 | 213 | 0.0 | 1.6 | 0.00 | 0.00 | 0.00 | 70 | 1036.2 |
| 20260507140024 | 12 | 190 | 1.6 | 3.2 | 0.00 | 0.00 | 0.00 | 69 | 1036.2 |
| 20260507135520 | 12 | 214 | 0.0 | 0.0 | 0.00 | 0.00 | 0.00 | 69 | 1036.3 |
| 20260507135018 | 13 | 205 | 1.6 | 3.2 | 0.00 | 0.00 | 0.00 | 71 | 1036.4 |
| 20260507134514 | 12 | 187 | 0.0 | 0.0 | 0.00 | 0.00 | 0.00 | 72 | 1036.1 |
| 20260507134010 | 12 | 205 | 0.0 | 1.6 | 0.00 | 0.00 | 0.00 | 73 | 1036.3 |
| 20260507133506 | 12 | 207 | 1.6 | 1.6 | 0.00 | 0.00 | 0.00 | 74 | 1036.2 |
| 20260507133005 | 12 | 228 | 1.6 | 1.6 | 0.00 | 0.00 | 0.00 | 74 | 1036.5 |
| 20260507132501 | 12 | 177 | 1.6 | 1.6 | 0.00 | 0.00 | 0.00 | 73 | 1036.4 |
| 20260507131956 | 12 | 233 | 1.6 | 1.6 | 0.00 | 0.00 | 0.00 | 73 | 1036.5 |
| 20260507131454 | 12 | 203 | 0.0 | 1.6 | 0.00 | 0.00 | 0.00 | 74 | 1036.5 |
| 20260507130951 | 11 | 232 | 3.2 | 4.8 | 0.00 | 0.00 | 0.00 | 75 | 1036.4 |
| 20260507130448 | 12 | 174 | 4.8 | 4.8 | 0.00 | 0.00 | 0.00 | 75 | 1036.5 |
| 20260507125946 | 11 | 191 | 0.0 | 0.0 | 0.00 | 0.00 | 0.00 | 78 | 1036.3 |
| 20260507125444 | 11 | 211 | 0.0 | 1.6 | 0.00 | 0.00 | 0.00 | 79 | 1036.4 |
| 20260507124941 | 11 | 221 | 1.6 | 3.2 | 0.00 | 0.00 | 0.00 | 77 | 1036.3 |
| 20260507124437 | 11 | 192 | 0.0 | 1.6 | 0.00 | 0.00 | 0.00 | 79 | 1036.5 |
| 20260507123936 | 11 | 172 | 0.0 | 0.0 | 0.00 | 0.00 | 0.00 | 78 | 1036.2 |
| 20260507123433 | 10 | 255 | 3.2 | 3.2 | 0.00 | 0.00 | 0.00 | 80 | 1036.4 |
| 20260507122929 | 10 | 186 | 0.0 | 1.6 | 0.00 | 0.00 | 0.00 | 80 | 1036.7 |
| 20260507122424 | 10 | 170 | 4.8 | 8.0 | 0.00 | 0.00 | 0.00 | 80 | 1036.7 |
| 20260507121921 | 10 | 174 | 0.0 | 0.0 | 0.00 | 0.00 | 0.00 | 82 | 1036.9 |
| 20260507121416 | 10 | 187 | 1.6 | 1.6 | 0.00 | 0.00 | 0.00 | 85 | 1036.7 |
| 20260507120913 | 9 | 184 | 0.0 | 0.0 | 0.00 | 0.00 | 0.00 | 86 | 1036.6 |
| 20260507120410 | 8 | 172 | 1.6 | 3.2 | 0.00 | 0.00 | 0.00 | 85 | 1036.7 |
| 20260507115906 | 8 | 220 | 0.0 | 0.0 | 0.00 | 0.00 | 0.00 | 88 | 1036.7 |
| 20260507115402 | 8 | 206 | 0.0 | 1.6 | 0.00 | 0.00 | 0.00 | 88 | 1036.8 |
| 20260507114858 | 8 | 205 | 0.0 | 1.6 | 0.00 | 0.00 | 0.00 | 91 | 1036.5 |
| 20260507114355 | 7 | 188 | 0.0 | 0.0 | 0.00 | 0.00 | 0.00 | 91 | 1036.6 |
| 20260507113852 | 7 | 199 | 0.0 | 0.0 | 0.00 | 0.00 | 0.00 | 93 | 1036.4 |
| 20260507113349 | 7 | 190 | 0.0 | 0.0 | 0.00 | 0.00 | 0.00 | 94 | 1036.4 |
| 20260507112846 | 7 | 187 | 0.0 | 0.0 | 0.00 | 0.00 | 0.00 | 96 | 1036.6 |
| 20260507112343 | 7 | 211 | 0.0 | 0.0 | 0.00 | 0.00 | 0.00 | 96 | 1036.5 |
| 20260507111841 | 7 | 197 | 0.0 | 0.0 | 0.00 | 0.00 | 0.00 | 96 | 1036.4 |
| 20260507111338 | 6 | 213 | 0.0 | 1.6 | 0.00 | 0.00 | 0.00 | 97 | 1036.5 |
| 20260507110834 | 6 | 221 | 0.0 | 0.0 | 0.00 | 0.00 | 0.00 | 97 | 1036.3 |
| 20260507110330 | 6 | 202 | 0.0 | 0.0 | 0.00 | 0.00 | 0.00 | 97 | 1036.5 |
| 20260507105827 | 6 | 193 | 0.0 | 0.0 | 0.00 | 0.00 | 0.00 | 96 | 1036.4 |
| 20260507105324 | 6 | 188 | 0.0 | 0.0 | 0.00 | 0.00 | 0.00 | 96 | 1036.0 |
| 20260507104821 | 6 | 180 | 0.0 | 0.0 | 0.00 | 0.00 | 0.00 | 96 | 1036.2 |
| 20260507104317 | 6 | 194 | 0.0 | 0.0 | 0.00 | 0.00 | 0.00 | 97 | 1036.2 |
| 20260507103813 | 6 | 177 | 0.0 | 0.0 | 0.00 | 0.00 | 0.00 | 97 | 1036.1 |
| 20260507103310 | 6 | 197 | 0.0 | 0.0 | 0.00 | 0.00 | 0.00 | 96 | 1036.1 |
| 20260507102806 | 6 | 198 | 0.0 | 0.0 | 0.00 | 0.00 | 0.00 | 96 | 1036.3 |
| 20260507102306 | 6 | 201 | 0.0 | 1.6 | 0.00 | 0.00 | 0.00 | 96 | 1036.3 |
| 20260507101759 | 6 | 194 | 0.0 | 1.6 | 0.00 | 0.00 | 0.00 | 97 | 1036.1 |
| 20260507101259 | 6 | 203 | 0.0 | 0.0 | 0.00 | 0.00 | 0.00 | 97 | 1035.7 |
| 20260507100756 | 6 | 208 | 0.0 | 0.0 | 0.00 | 0.00 | 0.00 | 97 | 1036.2 |
| 20260507100255 | 6 | 189 | 1.6 | 3.2 | 0.00 | 0.00 | 0.00 | 97 | 1036.2 |
| 20260507095752 | 6 | 204 | 0.0 | 1.6 | 0.00 | 0.00 | 0.00 | 97 | 1036.2 |
| 20260507095249 | 6 | 194 | 0.0 | 1.6 | 0.00 | 0.00 | 0.00 | 97 | 1036.3 |
| 20260507094746 | 6 | 205 | 0.0 | 0.0 | 0.00 | 0.00 | 0.00 | 98 | 1035.7 |
| 20260507094243 | 6 | 202 | 1.6 | 3.2 | 0.00 | 0.00 | 0.00 | 99 | 1036.5 |
| 20260507093739 | 6 | 202 | 0.0 | 0.0 | 0.00 | 0.00 | 0.00 | 99 | 1035.9 |
| 20260507093238 | 6 | 202 | 0.0 | 0.0 | 0.00 | 0.00 | 0.00 | 99 | 1036.3 |
| 20260507092735 | 6 | 205 | 0.0 | 0.0 | 0.00 | 0.00 | 0.00 | 99 | 1035.9 |
| 20260507092231 | 6 | 201 | 0.0 | 0.0 | 0.00 | 0.00 | 0.00 | 99 | 1036.1 |
| 20260507091728 | 6 | 226 | 3.2 | 3.2 | 0.00 | 0.00 | 0.00 | 99 | 1036.0 |
| 20260507091224 | 6 | 196 | 1.6 | 1.6 | 0.00 | 0.00 | 0.00 | 99 | 1036.2 |
| 20260507090720 | 6 | 211 | 1.6 | 1.6 | 0.00 | 0.00 | 0.00 | 99 | 1036.2 |
| 20260507090217 | 6 | 218 | 0.0 | 1.6 | 0.00 | 0.00 | 0.00 | 99 | 1036.2 |
| 20260507085714 | 6 | 204 | 1.6 | 1.6 | 0.00 | 0.00 | 0.00 | 99 | 1035.8 |
| 20260507085211 | 6 | 210 | 0.0 | 1.6 | 0.00 | 0.00 | 0.00 | 99 | 1035.9 |
| 20260507084708 | 6 | 202 | 0.0 | 0.0 | 0.00 | 0.00 | 0.00 | 99 | 1035.8 |
| 20260507084204 | 6 | 193 | 0.0 | 0.0 | 0.00 | 0.00 | 0.00 | 99 | 1035.7 |
| 20260507083702 | 6 | 223 | 3.2 | 4.8 | 0.00 | 0.00 | 0.00 | 99 | 1035.5 |
| 20260507083158 | 6 | 205 | 0.0 | 0.0 | 0.00 | 0.00 | 0.00 | 99 | 1035.8 |
| 20260507082654 | 6 | 176 | 0.0 | 0.0 | 0.00 | 0.00 | 0.00 | 99 | 1035.6 |
| 20260507082150 | 6 | 192 | 0.0 | 0.0 | 0.00 | 0.00 | 0.00 | 99 | 1035.5 |
| 20260507081647 | 6 | 190 | 0.0 | 0.0 | 0.00 | 0.00 | 0.00 | 99 | 1035.4 |
| 20260507081143 | 7 | 189 | 0.0 | 0.0 | 0.00 | 0.00 | 0.00 | 99 | 1035.4 |
| 20260507080640 | 7 | 196 | 0.0 | 0.0 | 0.00 | 0.00 | 0.00 | 99 | 1035.4 |
| 20260507080136 | 7 | 195 | 0.0 | 0.0 | 0.00 | 0.00 | 0.00 | 99 | 1035.8 |
| 20260507075631 | 7 | 195 | 0.0 | 0.0 | 0.00 | 0.00 | 0.00 | 99 | 1035.9 |
| 20260507075128 | 7 | 198 | 1.6 | 1.6 | 0.00 | 0.00 | 0.00 | 99 | 1035.8 |
| 20260507074625 | 7 | 193 | 0.0 | 0.0 | 0.00 | 0.00 | 0.00 | 99 | 1035.7 |
| 20260507074123 | 7 | 244 | 0.0 | 0.0 | 0.00 | 0.00 | 0.00 | 99 | 1035.5 |
| 20260507073619 | 7 | 196 | 0.0 | 0.0 | 0.00 | 0.00 | 0.00 | 99 | 1035.5 |
| 20260507073115 | 7 | 202 | 0.0 | 0.0 | 0.00 | 0.00 | 0.00 | 99 | 1035.3 |
| 20260507072613 | 7 | 187 | 0.0 | 0.0 | 0.00 | 0.00 | 0.00 | 99 | 1035.2 |
| 20260507072110 | 7 | 193 | 0.0 | 0.0 | 0.00 | 0.00 | 0.00 | 99 | 1035.6 |
| 20260507071607 | 7 | 204 | 0.0 | 0.0 | 0.00 | 0.00 | 0.00 | 99 | 1035.4 |
| 20260507071103 | 7 | 136 | 0.0 | 0.0 | 0.00 | 0.00 | 0.00 | 99 | 1035.3 |
| 20260507070601 | 7 | 193 | 0.0 | 0.0 | 0.00 | 0.00 | 0.00 | 99 | 1035.1 |
| 20260507070058 | 7 | 198 | 0.0 | 0.0 | 0.00 | 0.00 | 0.00 | 99 | 1035.3 |
| 20260507065554 | 7 | 196 | 0.0 | 0.0 | 0.00 | 0.00 | 0.00 | 99 | 1035.2 |
| 20260507065051 | 7 | 197 | 3.2 | 4.8 | 0.00 | 0.00 | 0.00 | 99 | 1035.2 |
| 20260507064549 | 7 | 234 | 0.0 | 0.0 | 0.00 | 0.00 | 0.00 | 99 | 1035.5 |
| 20260507064048 | 7 | 220 | 0.0 | 1.6 | 0.00 | 0.00 | 0.00 | 99 | 1035.6 |
| 20260507063544 | 7 | 214 | 0.0 | 0.0 | 0.00 | 0.00 | 0.00 | 99 | 1035.2 |
| 20260507063042 | 7 | 209 | 1.6 | 1.6 | 0.00 | 0.00 | 0.00 | 99 | 1035.3 |
| 20260507062538 | 7 | 204 | 0.0 | 0.0 | 0.00 | 0.00 | 0.00 | 99 | 1035.4 |
| 20260507062036 | 7 | 218 | 1.6 | 1.6 | 0.00 | 0.00 | 0.00 | 99 | 1035.3 |
| 20260507061533 | 7 | 205 | 0.0 | 0.0 | 0.00 | 0.00 | 0.00 | 99 | 1035.4 |
| 20260507061031 | 8 | 172 | 1.6 | 3.2 | 0.00 | 0.00 | 0.00 | 99 | 1035.3 |
| 20260507060529 | 7 | 202 | 0.0 | 0.0 | 0.00 | 0.00 | 0.00 | 99 | 1035.5 |
| 20260507060025 | 8 | 162 | 1.6 | 1.6 | 0.00 | 0.00 | 0.00 | 99 | 1035.5 |
| 20260507055525 | 8 | 167 | 0.0 | 1.6 | 0.00 | 0.00 | 0.00 | 99 | 1035.5 |
| 20260507055022 | 8 | 191 | 0.0 | 0.0 | 0.00 | 0.00 | 0.00 | 99 | 1035.3 |
| 20260507054518 | 8 | 108 | 1.6 | 4.8 | 0.00 | 0.00 | 0.00 | 99 | 1035.4 |
| 20260507054015 | 7 | 178 | 0.0 | 0.0 | 0.00 | 0.00 | 0.00 | 99 | 1035.1 |
| 20260507053513 | 7 | 186 | 0.0 | 0.0 | 0.00 | 0.00 | 0.00 | 99 | 1035.2 |
| 20260507053012 | 7 | 187 | 0.0 | 0.0 | 0.00 | 0.00 | 0.00 | 99 | 1035.2 |
| 20260507052509 | 7 | 189 | 0.0 | 0.0 | 0.00 | 0.00 | 0.00 | 99 | 1035.4 |
| 20260507052005 | 7 | 180 | 0.0 | 0.0 | 0.00 | 0.00 | 0.00 | 99 | 1035.3 |
| 20260507051503 | 7 | 188 | 0.0 | 0.0 | 0.00 | 0.00 | 0.00 | 99 | 1035.4 |
| 20260507051000 | 7 | 167 | 0.0 | 1.6 | 0.00 | 0.00 | 0.00 | 99 | 1035.4 |
| 20260507050456 | 7 | 171 | 1.6 | 3.2 | 0.00 | 0.00 | 0.00 | 99 | 1035.2 |
| 20260507045953 | 7 | 184 | 0.0 | 1.6 | 0.00 | 0.00 | 0.00 | 99 | 1035.3 |
| 20260507045449 | 7 | 184 | 0.0 | 0.0 | 0.00 | 0.00 | 0.00 | 99 | 1034.9 |
| 20260507044947 | 8 | 176 | 0.0 | 0.0 | 0.00 | 0.00 | 0.00 | 99 | 1035.0 |
| 20260507044444 | 8 | 180 | 0.0 | 0.0 | 0.00 | 0.00 | 0.00 | 99 | 1034.7 |
| 20260507043940 | 8 | 223 | 0.0 | 1.6 | 0.00 | 0.00 | 0.00 | 99 | 1035.0 |
| 20260507043436 | 8 | 202 | 0.0 | 0.0 | 0.00 | 0.00 | 0.00 | 99 | 1035.0 |
| 20260507042933 | 8 | 194 | 3.2 | 3.2 | 0.00 | 0.00 | 0.00 | 99 | 1035.2 |
| 20260507042430 | 8 | 230 | 1.6 | 1.6 | 0.00 | 0.00 | 0.00 | 99 | 1034.9 |
| 20260507041925 | 8 | 213 | 0.0 | 1.6 | 0.00 | 0.00 | 0.00 | 99 | 1035.0 |
| 20260507041422 | 8 | 249 | 3.2 | 3.2 | 0.00 | 0.00 | 0.00 | 99 | 1035.0 |
| 20260507040920 | 8 | 194 | 0.0 | 0.0 | 0.00 | 0.00 | 0.00 | 99 | 1035.1 |
| 20260507040415 | 8 | 222 | 0.0 | 1.6 | 0.00 | 0.00 | 0.00 | 99 | 1035.1 |
| 20260507035911 | 8 | 257 | 1.6 | 1.6 | 0.00 | 0.89 | 0.89 | 99 | 1035.0 |
| 20260507035408 | 9 | 195 | 1.6 | 1.6 | 0.00 | 0.89 | 0.89 | 99 | 1035.0 |
| 20260507034905 | 9 | 191 | 0.0 | 0.0 | 0.00 | 0.89 | 0.89 | 99 | 1034.8 |
| 20260507034401 | 9 | 207 | 0.0 | 1.6 | 0.00 | 0.89 | 0.89 | 99 | 1034.9 |
| 20260507033859 | 9 | 195 | 1.6 | 1.6 | 0.00 | 0.89 | 0.89 | 99 | 1034.5 |
| 20260507033357 | 10 | 202 | 0.0 | 1.6 | 0.00 | 0.89 | 0.89 | 99 | 1034.7 |
| 20260507032854 | 10 | 201 | 1.6 | 1.6 | 0.18 | 0.89 | 0.89 | 99 | 1035.0 |
| 20260507032351 | 10 | 223 | 1.6 | 1.6 | 0.48 | 0.89 | 0.89 | 99 | 1034.9 |
| 20260507031847 | 10 | 187 | 3.2 | 3.2 | 0.48 | 0.86 | 0.86 | 99 | 1034.9 |
| 20260507031344 | 10 | 281 | 1.6 | 3.2 | 0.30 | 0.81 | 0.81 | 99 | 1034.9 |
| 20260507030840 | 10 | 192 | 0.0 | 0.0 | 0.13 | 0.79 | 0.79 | 99 | 1035.2 |
| 20260507030338 | 11 | 234 | 1.6 | 3.2 | 0.00 | 0.76 | 0.76 | 99 | 1035.0 |
| 20260507025834 | 11 | 203 | 1.6 | 1.6 | 0.18 | 0.76 | 0.76 | 99 | 1034.9 |
| 20260507025332 | 12 | 203 | 3.2 | 4.8 | 0.18 | 0.76 | 0.76 | 99 | 1034.6 |
| 20260507024830 | 12 | 223 | 1.6 | 3.2 | 0.13 | 0.74 | 0.74 | 99 | 1035.1 |
| 20260507024327 | 12 | 206 | 0.0 | 0.0 | 0.13 | 0.74 | 0.74 | 99 | 1034.7 |
| 20260507023822 | 12 | 234 | 1.6 | 1.6 | 0.18 | 0.71 | 0.71 | 99 | 1034.6 |
| 20260507023319 | 12 | 197 | 0.0 | 0.0 | 0.18 | 0.71 | 0.71 | 99 | 1034.5 |
| 20260507022817 | 12 | 194 | 0.0 | 0.0 | 0.00 | 0.69 | 0.69 | 99 | 1034.4 |
| 20260507022313 | 13 | 195 | 1.6 | 1.6 | 0.00 | 0.69 | 0.69 | 99 | 1034.4 |
| 20260507021809 | 13 | 207 | 0.0 | 1.6 | 0.00 | 0.69 | 0.69 | 99 | 1034.3 |
| 20260507021305 | 13 | 198 | 0.0 | 0.0 | 0.00 | 0.69 | 0.69 | 99 | 1034.1 |
| 20260507020803 | 13 | 197 | 1.6 | 3.2 | 0.13 | 0.69 | 0.69 | 99 | 1034.0 |
| 20260507020259 | 14 | 202 | 3.2 | 3.2 | 0.13 | 0.69 | 0.69 | 99 | 1034.1 |
| 20260507015757 | 14 | 201 | 0.0 | 0.0 | 0.30 | 0.66 | 0.66 | 99 | 1034.0 |
| 20260507015254 | 14 | 198 | 0.0 | 0.0 | 0.48 | 0.66 | 0.66 | 99 | 1034.0 |
| 20260507014751 | 14 | 196 | 0.0 | 1.6 | 0.18 | 0.61 | 0.61 | 99 | 1033.9 |
| 20260507014247 | 14 | 185 | 1.6 | 3.2 | 0.00 | 0.58 | 0.58 | 99 | 1033.8 |
| 20260507013744 | 14 | 143 | 0.0 | 1.6 | 0.00 | 0.58 | 0.58 | 99 | 1034.0 |
| 20260507013241 | 14 | 177 | 1.6 | 1.6 | 0.00 | 0.58 | 0.58 | 99 | 1034.0 |
| 20260507012739 | 14 | 224 | 1.6 | 1.6 | 0.00 | 0.58 | 0.58 | 99 | 1033.9 |
| 20260507012234 | 14 | 190 | 0.0 | 0.0 | 0.00 | 0.58 | 0.58 | 99 | 1033.7 |
| 20260507011732 | 14 | 203 | 0.0 | 0.0 | 0.00 | 0.58 | 0.58 | 99 | 1033.8 |
| 20260507011228 | 14 | 175 | 1.6 | 3.2 | 0.00 | 0.58 | 0.58 | 99 | 1034.1 |
| 20260507010728 | 14 | 234 | 4.8 | 4.8 | 0.00 | 0.58 | 0.58 | 99 | 1033.9 |
| 20260507010224 | 14 | 189 | 0.0 | 0.0 | 0.00 | 0.58 | 0.58 | 99 | 1033.9 |
| 20260507005722 | 14 | 183 | 1.6 | 1.6 | 0.00 | 0.58 | 0.58 | 99 | 1034.1 |
| 20260507005218 | 14 | 196 | 0.0 | 1.6 | 0.00 | 0.58 | 0.58 | 99 | 1033.8 |
| 20260507004714 | 14 | 207 | 1.6 | 3.2 | 0.00 | 0.58 | 0.58 | 99 | 1034.0 |
| 20260507004212 | 14 | 185 | 0.0 | 0.0 | 0.00 | 0.58 | 0.58 | 99 | 1033.8 |
| 20260507003708 | 14 | 206 | 1.6 | 1.6 | 0.00 | 0.58 | 0.58 | 99 | 1033.9 |
| 20260507003203 | 14 | 195 | 0.0 | 0.0 | 0.00 | 0.58 | 0.58 | 99 | 1033.7 |
| 20260507002700 | 14 | 191 | 0.0 | 1.6 | 0.00 | 0.58 | 0.58 | 99 | 1033.8 |
| 20260507002156 | 14 | 194 | 1.6 | 3.2 | 0.00 | 0.58 | 0.58 | 99 | 1033.8 |
| 20260507001653 | 14 | 211 | 0.0 | 0.0 | 0.00 | 0.58 | 0.58 | 99 | 1034.0 |
| 20260507001150 | 14 | 195 | 0.0 | 0.0 | 0.00 | 0.58 | 0.58 | 99 | 1033.8 |
| 20260507000646 | 14 | 177 | 0.0 | 1.6 | 0.00 | 0.58 | 0.58 | 99 | 1033.8 |
| 20260507000142 | 14 | 216 | 1.6 | 1.6 | 0.00 | 0.58 | 0.58 | 99 | 1033.6 |
| 20260506235639 | 14 | 210 | 0.0 | 1.6 | 0.00 | 0.58 | 0.58 | 99 | 1033.6 |
| 20260506235139 | 14 | 194 | 1.6 | 1.6 | 0.00 | 0.58 | 0.58 | 99 | 1033.5 |
| 20260506234637 | 14 | 187 | 1.6 | 1.6 | 0.00 | 0.58 | 0.58 | 99 | 1033.4 |
| 20260506234134 | 14 | 191 | 3.2 | 4.8 | 0.00 | 0.58 | 0.58 | 99 | 1033.5 |
| 20260506233631 | 14 | 202 | 3.2 | 3.2 | 0.00 | 0.58 | 0.58 | 99 | 1033.6 |
| 20260506233128 | 14 | 162 | 0.0 | 3.2 | 0.00 | 0.58 | 0.58 | 99 | 1033.5 |
| 20260506232624 | 14 | 169 | 3.2 | 4.8 | 0.00 | 0.58 | 0.58 | 99 | 1033.6 |
| 20260506232120 | 14 | 236 | 3.2 | 3.2 | 0.00 | 0.58 | 0.58 | 99 | 1033.6 |
| 20260506231617 | 14 | 217 | 1.6 | 1.6 | 0.00 | 0.58 | 0.58 | 99 | 1033.7 |
| 20260506231115 | 14 | 179 | 3.2 | 3.2 | 0.00 | 0.58 | 0.58 | 99 | 1033.7 |
| 20260506230612 | 14 | 180 | 4.8 | 8.0 | 0.00 | 0.58 | 0.58 | 99 | 1033.7 |
| 20260506230109 | 14 | 231 | 4.8 | 8.0 | 0.00 | 0.58 | 0.58 | 99 | 1033.5 |
| 20260506225605 | 14 | 186 | 0.0 | 1.6 | 0.00 | 0.58 | 0.58 | 99 | 1033.8 |
| 20260506225102 | 14 | 190 | 0.0 | 0.0 | 0.00 | 0.58 | 0.58 | 99 | 1033.8 |
| 20260506224559 | 14 | 167 | 1.6 | 1.6 | 0.00 | 0.58 | 0.58 | 99 | 1033.6 |
| 20260506224055 | 14 | 193 | 0.0 | 0.0 | 0.00 | 0.58 | 0.58 | 99 | 1033.7 |
| 20260506223551 | 14 | 229 | 4.8 | 8.0 | 0.00 | 0.58 | 0.58 | 99 | 1033.8 |
| 20260506223048 | 14 | 160 | 3.2 | 4.8 | 0.00 | 0.58 | 0.58 | 99 | 1033.9 |
| 20260506222544 | 14 | 192 | 0.0 | 0.0 | 0.00 | 0.58 | 0.58 | 99 | 1033.9 |
| 20260506222041 | 14 | 194 | 1.6 | 3.2 | 0.00 | 0.58 | 0.58 | 99 | 1034.0 |
| 20260506221539 | 14 | 183 | 1.6 | 1.6 | 0.00 | 0.58 | 0.58 | 99 | 1034.0 |
| 20260506221036 | 14 | 215 | 3.2 | 4.8 | 0.00 | 0.58 | 0.58 | 99 | 1034.0 |
| 20260506220532 | 15 | 276 | 6.4 | 12.9 | 0.00 | 0.58 | 0.58 | 99 | 1033.9 |
| 20260506220028 | 15 | 240 | 4.8 | 9.7 | 0.00 | 0.58 | 0.58 | 99 | 1033.9 |
| 20260506215525 | 15 | 283 | 3.2 | 3.2 | 0.00 | 0.58 | 0.58 | 99 | 1034.0 |
| 20260506215020 | 15 | 220 | 1.6 | 3.2 | 0.00 | 0.58 | 0.58 | 99 | 1033.9 |
| 20260506214518 | 15 | 192 | 0.0 | 0.0 | 0.00 | 0.58 | 0.58 | 99 | 1033.9 |
| 20260506214015 | 15 | 208 | 3.2 | 4.8 | 0.13 | 0.58 | 0.58 | 99 | 1033.9 |
| 20260506213513 | 15 | 239 | 1.6 | 1.6 | 0.13 | 0.58 | 0.58 | 99 | 1034.0 |
| 20260506213010 | 15 | 248 | 4.8 | 4.8 | 0.00 | 0.56 | 0.56 | 99 | 1034.2 |
| 20260506212506 | 15 | 273 | 3.2 | 3.2 | 0.00 | 0.56 | 0.56 | 99 | 1034.1 |
| 20260506212001 | 15 | 225 | 4.8 | 8.0 | 0.00 | 0.56 | 0.56 | 99 | 1034.3 |
| 20260506211457 | 15 | 184 | 1.6 | 3.2 | 0.18 | 0.56 | 0.56 | 99 | 1034.1 |
| 20260506210955 | 15 | 222 | 4.8 | 8.0 | 0.18 | 0.56 | 0.56 | 99 | 1034.2 |
| 20260506210451 | 15 | 191 | 1.6 | 3.2 | 0.00 | 0.53 | 0.53 | 99 | 1034.4 |
| 20260506205948 | 15 | 201 | 1.6 | 1.6 | 0.00 | 0.53 | 0.53 | 99 | 1034.3 |
| 20260506205444 | 15 | 173 | 1.6 | 1.6 | 0.00 | 0.53 | 0.53 | 99 | 1034.2 |
| 20260506204940 | 15 | 208 | 3.2 | 4.8 | 0.00 | 0.53 | 0.53 | 99 | 1034.2 |
| 20260506204438 | 15 | 254 | 3.2 | 3.2 | 0.18 | 0.53 | 0.53 | 99 | 1034.2 |
| 20260506203935 | 15 | 180 | 4.8 | 8.0 | 0.18 | 0.53 | 0.53 | 99 | 1034.4 |
| 20260506203432 | 15 | 253 | 3.2 | 4.8 | 0.00 | 0.51 | 0.51 | 99 | 1034.5 |
| 20260506202929 | 15 | 8 | 6.4 | 9.7 | 0.00 | 0.51 | 0.51 | 99 | 1034.5 |
| 20260506202427 | 15 | 178 | 0.0 | 0.0 | 0.13 | 0.51 | 0.51 | 99 | 1034.8 |